Temp
22 23 23 24 24 24 24 24 24 24 23 23 23 24 24 24 24 23 24 24 24 24 24 24 25 25 26 28 28 28 28 28 29 30 29 29 26 26 26 26 27 27 29
22 21 22 23 23 24 23 24 23 23 23 23 23 23 24 24 24 23 24 25 24 24 24 25 24 25 25 25 26 27 27 27 27 27 28 28 27 26 26 25 27 27 27
22 22 20 22 22 23 23 23 24 23 23 24 23 23 24 24 24 23 23 24 24 24 24 25 24 25 25 26 26 26 27 27 27 27 27 28 28 27 27 27 27 27 28
20 20 21 21 21 22 22 23 23 23 23 24 24 24 24 24 24 24 24 23 24 24 24 24 24 24 25 24 25 25 26 25 26 26 27 28 28 28 27 28 29 29 28
19 19 19 19 20 20 21 21 22 22 23 23 23 24 24 24 24 23 23 23 23 24 24 24 24 24 24 24 24 25 25 25 26 27 28 28 29 29 28 28 28 28 28
18 18 18 19 18 19 19 20 20 21 21 22 22 23 23 24 23 22 23 24 24 24 24 24 24 24 23 24 23 23 23 23 24 25 27 28 27 26 27 27 27 27 28
18 17 18 17 18 18 19 18 18 20 20 20 21 21 19 18 19 21 22 21 24 24 24 24 24 26 24 24 24 23 23 23 23 23 23 24 25 24 24 24 25 26 26
16 16 16 16 16 16 17 17 17 18 19 20 20 19 17 18 19 20 21 21 23 23 23 23 23 23 22 22 23 24 25 24 24 23 23 23 23 23 23 24 24 24 25
13 14 15 15 15 15 16 17 17 18 18 19 19 16 15 17 18 20 20 21 21 21 20 20 20 20 19 20 20 22 24 24 25 24 24 23 23 23 23 22 24 26 27
11 12 13 13 14 14 14 15 15 16 18 19 17 15 15 14 16 18 19 20 20 21 19 18 18 18 18 18 19 19 21 22 21 21 22 22 23 23 24 23 24 25 26
12 12 13 13 14 14 14 14 14 16 16 16 16 15 13 13 14 16 17 17 17 19 20 20 19 18 18 18 18 18 19 19 19 21 23 24 25 26 26 26 23 22 24
12 11 11 12 14 13 12 13 14 14 15 15 15 15 15 13 12 13 15 15 15 16 16 16 16 18 18 18 18 18 19 20 21 23 24 24 25 25 25 25 24 23 23
11 11 11 12 13 13 13 12 13 13 15 15 16 17 16 14 13 11 11 12 12 14 13 14 17 18 18 18 18 18 19 21 22 23 23 24 24 24 23 23 24 24 24
12 12 12 13 13 13 14 15 15 15 16 16 16 15 14 14 11 9 9 11 12 14 13 14 16 17 17 17 18 17 18 19 19 20 22 22 22 23 23 24 24 25 25
13 13 13 13 13 13 13 13 13 9 10 14 14 14 14 14 9 8 9 9 10 11 14 16 17 18 18 18 18 18 18 18 18 19 20 20 21 21 22 23 23 24 24
13 14 15 14 14 14 13 11 9 8 8 9 9 10 9 8 8 9 10 10 11 12 13 14 15 15 16 16 17 17 17 17 17 17 18 19 19 20 21 21 22 22 23
13 13 14 13 14 14 14 14 12 7 7 8 8 8 8 9 8 9 9 9 10 12 15 14 13 13 13 12 13 14 15 15 13 15 15 16 17 17 18 19 19 20 22
12 11 13 13 13 13 13 14 14 14 13 11 7 7 7 7 7 8 10 12 13 13 13 13 13 12 12 12 12 11 11 11 12 12 13 14 15 16 16 17 18 18 19
11 12 13 13 13 12 12 13 13 13 13 13 11 9 8 8 8 8 9 11 12 12 12 12 11 11 10 10 10 9 9 10 10 10 11 12 13 13 14 15 15 15 14
11 11 12 12 11 12 12 13 13 13 13 12 12 11 10 11 11 11 10 10 11 11 10 10 9 9 9 8 8 8 8 9 9 9 10 10 10 10 11 12 12 12 13
12 10 11 12 12 12 12 12 12 12 12 12 12 7 7 9 11 11 10 10 9 9 9 8 8 8 8 8 7 7 8 8 8 8 8 8 8 8 8 9 10 10 11
12 11 11 12 12 11 12 12 12 12 12 11 11 9 7 8 10 10 9 9 8 8 8 7 7 7 7 6 6 6 6 6 6 6 6 6 6 6 7 7 7 7 7
13 12 12 12 11 11 10 11 11 11 11 11 11 11 10 10 10 9 9 8 8 7 7 6 6 6 6 5 4 3 3 4 3 3 3 3 3 3 4 4 5 5 6
13 13 12 12 11 11 11 11 11 10 10 11 11 10 10 10 10 9 8 8 7 7 6 6 5 4 4 4 3 3 2 2 0 -0 -1 -0 0 0 1 1 2 3 4
13 12 12 12 11 11 12 11 12 11 11 11 11 11 10 10 9 9 8 7 6 6 5 5 4 4 3 3 2 2 1 -1 -1 -0 -1 -1 -1 -1 -1 -1 -0 0 1
11 12 12 12 12 11 11 11 11 11 11 11 11 10 10 9 9 8 8 7 6 6 4 4 4 3 3 2 1 0 -1 -0 -0 0 1 0 -1 -1 -1 -1 -1 -1 -0
Height
858 861 862 866 868 870 872 874 874 875 875 875 878 878 880 881 882 883 885 885 886 886 886 887 887 887 886 883 883 884 883 883 880 876 876 877 879 877 875 873 870 867 863
856 859 860 863 865 867 869 871 873 873 874 875 875 876 878 878 880 881 882 882 884 884 884 885 885 884 884 884 883 883 882 882 882 880 878 877 876 875 873 871 867 864 861
853 855 857 860 861 865 866 867 869 871 873 874 874 873 875 876 876 878 880 880 880 881 882 881 882 882 882 881 881 881 879 878 878 877 875 873 871 871 869 867 864 861 857
849 852 854 856 858 859 862 864 865 867 869 871 871 872 872 872 874 875 876 877 878 878 878 879 880 880 880 881 879 879 878 878 876 875 872 869 867 865 865 861 858 856 854
846 851 850 853 855 858 860 862 863 864 866 868 868 869 870 871 871 872 873 874 875 875 875 875 876 876 877 877 877 876 876 876 873 870 866 864 862 860 860 860 857 853 851
846 849 851 852 854 856 859 861 862 863 866 866 866 866 866 867 866 867 869 871 871 871 872 872 872 872 872 873 873 873 873 874 873 871 867 863 863 863 859 859 855 853 849
845 848 851 854 855 857 858 860 862 863 865 866 868 868 866 866 865 865 866 867 868 868 868 869 869 867 868 869 868 869 869 869 869 869 867 864 863 862 861 858 856 853 849
845 849 852 854 855 858 860 860 861 863 865 867 867 868 867 865 865 865 865 865 865 865 865 866 866 866 863 864 865 864 864 864 864 863 861 860 859 857 856 854 852 849 844
848 850 853 856 857 860 860 861 861 862 865 867 868 866 866 865 865 863 865 865 865 865 864 861 861 861 861 861 862 862 860 859 858 858 856 855 853 851 850 849 846 842 834
853 855 855 858 858 860 861 861 862 863 865 865 867 868 865 866 865 864 864 866 864 864 864 862 861 861 859 859 858 858 857 857 855 852 851 848 847 844 843 841 840 837 832
856 858 859 860 860 861 861 861 863 863 864 866 868 869 867 866 865 864 863 864 863 864 863 863 863 859 859 857 856 855 855 852 851 849 846 843 840 838 836 833 833 833 830
858 859 861 862 864 863 863 863 863 864 865 867 869 869 869 869 866 865 862 862 863 862 862 859 859 858 856 856 855 853 852 850 848 845 842 839 837 835 833 832 830 828 826
860 860 861 863 864 864 864 864 865 865 866 868 867 867 869 869 869 866 864 863 861 860 862 858 855 853 854 853 851 851 849 847 846 842 839 837 835 833 832 829 826 821 818
862 863 863 862 864 865 865 866 866 866 866 867 867 867 868 868 867 864 862 861 861 861 858 858 855 853 853 853 849 849 849 846 844 843 840 836 833 831 828 825 821 818 813
860 863 862 864 863 866 866 866 866 866 866 866 866 867 865 864 865 861 859 860 859 857 855 856 855 853 851 851 849 847 846 845 844 842 838 836 833 829 825 822 818 814 811
859 860 859 861 862 864 865 866 865 865 865 865 865 865 865 863 862 861 860 859 857 855 856 856 855 853 851 850 849 847 845 844 844 843 839 835 832 827 824 820 816 812 807
858 859 859 860 860 861 863 862 865 867 866 865 865 865 864 862 860 858 858 858 857 856 856 856 856 855 854 855 851 850 848 847 846 843 839 835 832 828 826 820 816 812 805
858 858 858 858 859 861 862 861 862 861 863 866 866 866 865 863 862 860 859 858 858 858 858 857 857 856 855 854 852 851 850 847 844 842 839 836 831 827 824 820 815 811 806
856 857 857 858 858 859 860 861 863 862 861 862 865 865 865 864 863 861 860 861 859 859 859 858 857 855 854 854 852 850 848 846 844 841 838 834 832 828 823 820 814 811 807
855 855 856 857 859 860 859 860 861 862 863 864 863 865 866 864 863 863 862 862 861 860 860 859 858 857 855 854 853 851 848 846 843 841 837 835 832 828 823 819 815 810 806
850 853 855 855 856 858 859 859 860 861 862 863 863 864 863 864 863 862 862 862 862 861 859 859 858 857 855 855 853 850 848 846 843 840 837 833 829 826 823 818 813 809 802
847 849 851 852 854 856 857 858 859 860 860 860 861 863 863 861 862 862 861 861 860 860 859 858 857 856 855 853 851 849 847 844 841 838 835 831 828 824 819 814 809 804 801
841 844 847 849 851 853 856 856 857 857 858 858 859 859 860 859 860 860 860 859 859 858 857 857 856 854 853 851 850 848 845 842 839 836 832 828 824 819 815 809 805 799 794
834 837 840 844 847 850 851 851 853 855 855 855 856 856 857 857 857 857 857 857 856 856 855 854 853 852 850 848 846 844 841 838 834 831 827 821 816 812 808 803 798 793 788
827 830 835 838 840 844 845 847 848 849 851 852 852 853 853 854 854 854 853 854 854 853 851 850 849 847 845 843 840 837 834 830 826 822 816 810 804 800 796 790 785 780 776
821 822 828 832 835 839 841 842 844 846 847 848 849 849 849 850 850 850 850 849 849 848 847 846 845 843 840 837 834 830 825 820 815 811 805 798 792 786 781 774 769 765 761
Wind_Speed
11 13 14 12 9 8 9 9 7 6 7 9 9 11 10 10 10 10 8 7 9 10 9 9 10 10 11 10 9 8 9 9 11 14 7 9 10 11 14 14 15 16 17
10 12 12 12 13 11 11 11 10 9 8 6 6 9 10 10 11 11 11 9 10 10 9 10 11 12 11 12 12 11 12 10 12 13 15 15 12 13 13 14 15 16 15
14 13 11 13 10 12 12 11 12 11 8 8 7 6 8 9 9 10 11 10 10 10 9 10 10 11 12 13 12 14 14 14 13 16 16 17 15 15 14 16 15 13 14
12 11 14 16 21 13 10 11 11 11 11 12 11 10 8 6 6 7 9 9 9 10 11 10 10 11 11 11 13 12 13 13 16 16 18 18 17 14 15 16 16 15 15
16 16 15 14 15 12 7 6 5 5 6 9 11 10 10 9 9 9 9 9 10 11 12 11 12 12 14 14 13 12 12 14 15 17 16 16 16 13 13 17 17 17 18
13 14 13 12 10 11 7 5 4 4 1 2 6 7 9 7 13 14 12 10 10 11 12 11 11 13 15 16 17 18 17 16 16 16 18 17 16 16 15 15 18 19 17
17 14 14 13 9 8 8 5 4 4 4 4 2 3 4 0 8 9 11 10 12 12 11 11 11 12 10 12 13 15 17 17 19 21 20 20 20 18 17 18 18 20 21
16 13 11 9 7 6 8 7 5 2 2 2 5 5 4 5 2 3 3 5 9 9 10 9 10 9 11 12 12 14 16 17 17 18 18 20 21 19 17 18 21 23 24
14 12 11 9 9 6 6 4 3 3 4 5 4 6 4 4 3 3 3 1 2 2 2 6 7 7 10 12 10 13 16 17 17 17 19 20 22 24 24 21 22 24 25
10 9 9 8 7 6 6 6 4 5 5 6 5 4 5 4 3 2 2 2 2 1 1 4 6 5 7 7 6 7 10 12 13 17 20 21 21 22 20 19 18 21 24
10 8 7 7 6 6 4 5 4 5 6 5 5 4 4 4 5 4 3 2 1 3 1 2 4 5 6 7 8 6 8 12 14 15 17 17 17 18 19 17 15 18 22
7 7 4 5 3 3 4 5 4 4 5 5 4 4 2 1 4 8 6 4 3 3 4 6 9 10 9 10 9 8 11 13 13 13 15 16 16 16 17 16 16 20 23
6 6 5 3 2 3 3 3 3 3 5 6 6 5 3 1 2 10 10 9 8 5 8 10 9 10 10 7 8 14 13 11 14 15 15 16 16 18 19 21 21 20 23
4 5 5 5 4 2 2 2 2 3 3 4 4 4 3 1 3 7 9 8 10 7 12 9 7 6 6 7 7 7 9 9 12 16 18 18 19 19 20 20 22 22 23
5 4 4 4 4 4 3 2 2 1 2 1 1 1 2 1 5 9 10 9 8 8 9 6 5 6 6 7 8 8 10 11 12 13 15 18 20 20 21 21 21 23 25
6 6 5 5 5 5 5 5 5 3 3 2 2 5 2 3 5 5 4 4 5 7 6 6 7 9 9 11 11 12 11 12 14 16 17 17 20 20 21 22 22 22 24
6 6 6 6 5 5 6 7 6 4 6 4 3 3 1 3 4 5 5 5 13 6 4 6 7 8 9 10 11 12 12 13 16 16 18 19 20 21 23 23 23 25 26
8 9 7 6 6 6 5 5 4 6 6 4 3 4 7 9 10 10 9 6 4 5 7 7 7 8 9 11 12 13 14 15 16 17 19 20 20 21 24 24 24 25 26
9 9 8 7 7 7 6 5 5 4 4 3 4 2 6 7 10 12 12 7 7 7 9 9 10 11 12 13 14 15 16 17 18 19 19 20 21 22 24 25 26 27 27
11 10 10 9 8 8 7 7 5 4 5 4 4 2 4 3 2 4 5 6 6 7 8 9 10 11 12 13 15 16 17 18 19 19 20 21 22 23 25 26 27 28 29
13 13 12 10 9 8 8 7 6 5 4 2 3 2 5 1 3 4 5 6 6 7 8 9 10 11 11 13 14 15 17 19 20 21 22 23 23 25 26 27 28 30 31
16 15 15 13 11 10 9 7 7 6 4 3 2 2 4 0 2 3 4 4 5 6 7 9 10 11 13 14 16 17 19 20 21 22 24 25 26 27 27 28 29 29 32
18 17 16 14 12 11 10 9 8 7 6 4 3 2 2 2 3 4 5 5 6 7 8 9 10 12 13 14 16 17 19 21 22 23 26 28 29 29 29 32 32 34 34
21 20 18 17 15 14 13 11 10 8 6 6 6 4 4 4 5 5 6 6 7 7 8 9 10 12 13 16 16 18 19 20 21 25 27 28 31 32 32 33 34 36 37
23 21 20 19 18 17 14 12 11 10 9 8 8 7 6 6 6 6 7 7 8 9 9 11 11 13 15 18 19 19 20 28 26 27 32 32 33 35 37 37 37 37 38
25 24 23 20 18 17 15 14 12 11 10 9 8 8 8 8 8 8 8 9 10 10 12 11 13 14 18 18 18 23 29 30 34 37 35 38 36 36 35 37 38 38 37
Wind_Direction
214 222 220 219 226 231 242 245 240 246 259 218 215 219 221 226 227 226 238 245 240 242 249 253 259 261 261 261 258 268 277 281 290 294 311 290 309 307 311 316 318 312 315
239 223 210 217 223 232 236 239 241 241 246 234 238 227 221 227 230 226 227 243 240 238 248 256 259 254 251 257 260 265 278 283 280 290 287 291 293 305 307 313 317 316 316
225 222 217 220 228 237 245 239 241 241 234 240 244 245 237 231 226 228 228 229 227 231 244 250 256 255 256 263 262 271 268 266 263 272 282 281 287 296 305 306 307 307 306
208 226 229 244 246 220 241 242 236 237 233 238 238 235 233 223 209 210 222 229 233 237 245 247 250 253 256 266 261 258 265 272 272 265 272 276 279 292 287 294 309 314 313
195 221 217 220 225 225 210 225 205 215 223 234 227 223 219 218 227 221 221 227 239 242 240 245 245 246 249 254 260 263 274 270 273 276 277 278 278 295 317 306 299 302 307
182 182 175 159 160 151 142 179 165 146 126 228 231 223 219 211 219 224 221 235 234 237 245 246 251 256 261 264 264 262 259 263 268 276 285 284 294 284 288 297 308 307 306
151 153 162 164 157 156 145 123 102 121 146 130 102 123 113 195 261 248 248 245 246 245 249 256 259 258 254 260 263 270 270 268 265 262 268 276 287 289 294 291 289 295 293
136 136 137 143 139 158 182 195 204 167 150 151 146 136 85 29 3 300 269 259 251 250 257 261 261 272 261 251 263 265 266 269 269 267 263 271 272 274 275 278 283 284 283
107 119 128 138 134 138 142 161 169 188 202 188 168 133 98 42 38 137 86 15 323 274 269 233 222 243 277 279 275 276 274 274 284 279 276 276 277 278 276 275 277 281 286
94 99 122 130 133 137 136 145 144 153 170 160 149 139 119 54 22 359 58 360 84 79 256 330 331 340 322 312 302 296 285 282 301 296 293 288 285 287 287 276 272 276 282
112 113 109 121 131 132 131 135 118 140 148 151 155 148 102 91 8 2 302 352 59 341 308 310 308 327 338 334 315 298 285 292 298 295 293 292 289 284 281 282 270 268 281
123 119 119 99 134 129 133 129 128 136 147 165 182 178 178 152 25 356 4 355 341 318 289 288 302 307 303 305 309 286 300 303 295 292 293 294 296 297 296 297 297 285 282
129 125 115 102 100 113 121 118 131 151 180 201 204 205 207 217 335 351 358 1 354 9 305 316 308 314 312 295 296 305 303 292 293 292 293 296 296 296 298 295 289 286 281
151 156 154 147 142 136 147 155 174 178 199 199 194 200 206 198 354 351 349 352 342 345 314 321 331 351 335 333 347 324 316 317 308 300 297 298 298 296 296 298 298 297 296
164 182 174 182 168 158 131 128 133 69 144 227 141 301 296 297 333 343 346 339 336 339 357 337 334 343 344 342 341 340 335 331 320 310 310 308 304 301 298 297 295 295 293
190 196 191 195 192 192 179 114 132 119 91 165 146 119 41 337 318 327 332 350 14 37 29 5 3 2 359 352 344 340 339 336 331 323 315 311 308 308 308 308 300 292 290
211 194 193 202 197 194 204 196 157 106 85 65 70 103 195 325 23 28 57 67 37 43 11 18 13 3 356 346 343 336 332 329 324 318 316 314 311 309 308 306 302 299 300
195 194 194 185 182 186 191 187 204 188 184 167 75 81 34 53 50 59 69 32 31 23 17 13 4 358 349 344 338 334 327 327 324 321 315 310 310 308 306 304 303 301 301
188 187 188 176 171 166 164 167 175 166 151 139 165 56 2 16 39 39 41 31 22 17 8 1 357 353 350 343 338 334 331 326 323 319 316 314 311 309 305 301 302 303 313
194 185 179 173 169 175 172 172 168 170 170 165 147 75 349 353 48 28 29 24 17 12 3 356 351 346 343 339 335 332 328 325 323 320 316 312 308 305 302 301 299 296 295
192 186 186 187 188 187 183 177 173 181 179 184 156 126 10 40 12 16 12 9 1 358 355 348 341 339 335 330 327 324 320 317 317 316 314 312 311 307 303 301 300 296 293
194 189 191 196 192 189 191 188 189 184 178 181 189 204 1 267 328 334 347 348 347 343 341 337 332 330 328 326 324 321 318 315 314 313 311 308 306 304 303 300 298 295 292
195 194 194 197 198 193 194 207 209 210 214 220 227 241 259 291 294 306 319 326 325 328 327 323 322 321 320 318 316 314 312 311 309 308 306 303 301 300 300 300 297 295 292
198 197 196 197 198 200 207 208 215 228 248 237 236 247 266 286 295 294 296 307 312 313 312 312 313 313 314 315 312 308 306 303 300 298 297 294 291 288 287 287 286 287 288
202 200 203 200 196 204 205 216 215 222 226 234 242 249 262 277 287 291 294 293 296 304 308 310 310 312 316 314 311 309 305 305 306 305 302 291 283 279 276 274 273 272 274
209 198 204 206 203 206 209 208 216 222 230 236 245 253 261 271 280 289 293 292 295 296 300 305 307 311 313 315 314 313 321 324 322 320 315 311 296 286 278 272 270 266 267